Find Starlink 31674

NORAD ID: 59517 Int'l Des: 2024-073 Owner: SPXS Country: US Constellation: starlink operational
LEOCIRCULAR

リアルタイム位置

3D地球を読み込み中...

Starlink 31674について

説明を読み込み中...

次回通過

Passes for default location (London). Set your location on the main map for personalized predictions.

高度履歴

Loading altitude history...

軌道要素

1 59517U 24073G 26107.05178977 .00000364 00000-0 22743-4 0 9998
2 59517 43.0028 101.2795 0001338 256.2541 103.8162 15.27580716112042
Epoch: Apr 17, 2026 • Age: 17 hours

現在のステータス

高度 482.5 km
速度 7.63 km/s
衛星直下点 6.26°N, 20.15°W
打ち上げ日 Apr 17, 2024
運用期間 1.9 years
タイプ internet

技術仕様

分類 Payload
質量 730.00 kg
乾燥質量 700.00 kg
総質量 730.00 kg
長さ 0.30 m
直径 4.10 m
スパン 29.00 m
形状 Box + pan
製造者 SPXS
バスタイプ Starlink V2M
フェーズステータス In Orbit
所有者/国 SPXS/US

Most Searched